Location: Barrio de Canyet
(41.4665°N, 2.2381°E)
Time: 20:43:43
(UTC+00:00)

ATLAS 2AS CENTAUR R/B - Pass Details

Date: 09 April 2020
Orbit: 931 x 1280 km, 63.7° (Epoch: 30 May)

Event Time Altitude Azimuth Distance (km) Brightness Sun altitude
Rises 19:57:33 0° 322° (NW) 4,145 7.0 -17.1°
Reaches altitude 10° 20:00:27 10° 319° (NW) 3,134 6.2 -17.5°
Maximum altitude 20:07:46 59° 242° (WSW) 1,280 3.2 -18.7°
Enters shadow 20:13:04 17° 168° (SSE) 2,402 4.2 -19.6°
